Location: ????
(32.1228°N, 34.8377°E)
Time: 00:27:57
(UTC+00:00)

Cosmos 1733 Rocket - Pass Details

Date: 21 September 2020
Orbit: 602 x 629 km, 82.5° (Epoch: 21 October)

Event Time Altitude Azimuth Distance (km) Brightness Sun altitude
Rises 02:40:35 0° 348° (NNW) 2,871 6.4 -10.9°
Reaches altitude 10° 02:42:50 10° 345° (NNW) 1,960 5.6 -10.4°
Maximum altitude 02:47:05 57° 267° (W) 710 3.0 -9.5°
Drops below altitude 10° 02:51:17 10° 188° (S) 1,938 5.5 -8.7°
Sets 02:53:30 0° 184° (S) 2,836 6.4 -8.2°
